AZG4881 KORD-KJFK

Flight info

Callsign AZG4881
Flight time 1h 28m
Altitude 35000
Route DUFEE LOGGR HAAKK DOXXY SOSIC JHW Q476 WLKES PUCKY1
Aircraft B77L/H-SDE1E3FGHIJ1J3J4J5M1P2RWXYZ/LB1D1G1

Departure

Time 2026-05-09 00:20
Airport Chicago O'Hare International Airport (KORD)

Arrival

Time 2026-05-09 01:48
Airport John F. Kennedy International Airport (KJFK)
Time Latitude Longitude Altitude Speed Heading
2026-05-08 23:44 41.99425 -87.89138 681 ft 0 kts 180°
2026-05-09 00:02 41.99426 -87.89138 681 ft 1 kts 180°
2026-05-09 00:02 41.99440 -87.89138 681 ft 2 kts 180°
2026-05-09 00:02 41.99455 -87.89138 681 ft 2 kts 180°
2026-05-09 00:03 41.99470 -87.89138 681 ft 2 kts 180°
2026-05-09 00:03 41.99485 -87.89136 681 ft 2 kts 204°
2026-05-09 00:03 41.99497 -87.89124 681 ft 2 kts 227°
2026-05-09 00:03 41.99506 -87.89108 681 ft 2 kts 250°
2026-05-09 00:04 41.99509 -87.89091 681 ft 0 kts 269°
2026-05-09 00:04 41.99508 -87.89102 681 ft 4 kts 266°
2026-05-09 00:04 41.99508 -87.89166 681 ft 7 kts 270°
2026-05-09 00:04 41.99508 -87.89211 681 ft 2 kts 270°
2026-05-09 00:05 41.99508 -87.89217 681 ft 0 kts 270°
2026-05-09 00:07 41.99508 -87.89220 681 ft 1 kts 270°
2026-05-09 00:07 41.99508 -87.89259 681 ft 6 kts 270°
2026-05-09 00:07 41.99508 -87.89317 681 ft 6 kts 270°
2026-05-09 00:07 41.99508 -87.89374 681 ft 6 kts 270°
2026-05-09 00:08 41.99508 -87.89431 681 ft 5 kts 270°
2026-05-09 00:08 41.99508 -87.89486 681 ft 5 kts 270°
2026-05-09 00:08 41.99508 -87.89551 681 ft 8 kts 270°
2026-05-09 00:08 41.99508 -87.89638 681 ft 11 kts 271°
2026-05-09 00:09 41.99472 -87.89753 681 ft 16 kts 225°
2026-05-09 00:09 41.99383 -87.89857 681 ft 16 kts 220°
2026-05-09 00:09 41.99299 -87.89952 681 ft 15 kts 221°
2026-05-09 00:09 41.99220 -87.90031 681 ft 13 kts 201°
2026-05-09 00:10 41.99129 -87.90044 681 ft 12 kts 179°
2026-05-09 00:10 41.99048 -87.90044 681 ft 11 kts 185°
2026-05-09 00:10 41.98993 -87.90098 681 ft 10 kts 254°
2026-05-09 00:10 41.98993 -87.90206 681 ft 12 kts 270°
2026-05-09 00:11 41.98994 -87.90336 681 ft 15 kts 270°
2026-05-09 00:11 41.98998 -87.90487 681 ft 17 kts 272°
2026-05-09 00:11 41.98994 -87.90661 681 ft 21 kts 269°
2026-05-09 00:11 41.98993 -87.90878 681 ft 23 kts 270°
2026-05-09 00:12 41.98993 -87.91087 681 ft 21 kts 270°
2026-05-09 00:12 41.98996 -87.91276 681 ft 19 kts 270°
2026-05-09 00:12 41.98993 -87.91448 681 ft 17 kts 269°
2026-05-09 00:12 41.98994 -87.91604 681 ft 16 kts 272°
2026-05-09 00:13 41.98999 -87.91747 681 ft 14 kts 273°
2026-05-09 00:13 41.98996 -87.91880 681 ft 13 kts 268°
2026-05-09 00:13 41.98993 -87.92001 681 ft 13 kts 268°
2026-05-09 00:13 41.98992 -87.92120 681 ft 12 kts 269°
2026-05-09 00:14 41.98992 -87.92232 681 ft 12 kts 270°
2026-05-09 00:14 41.98992 -87.92347 681 ft 11 kts 270°
2026-05-09 00:14 41.98993 -87.92454 681 ft 11 kts 270°
2026-05-09 00:14 41.98999 -87.92600 681 ft 18 kts 271°
2026-05-09 00:15 41.99000 -87.92763 681 ft 16 kts 270°
2026-05-09 00:15 41.99001 -87.92915 681 ft 15 kts 270°
2026-05-09 00:15 41.99001 -87.93051 681 ft 14 kts 268°
2026-05-09 00:15 41.98994 -87.93101 681 ft 1 kts 249°
2026-05-09 00:16 41.98967 -87.93136 681 ft 8 kts 203°
2026-05-09 00:16 41.98946 -87.93141 681 ft 0 kts 183°
2026-05-09 00:18 41.98946 -87.93142 681 ft 0 kts 183°
2026-05-09 00:18 41.98931 -87.93143 681 ft 4 kts 183°
2026-05-09 00:18 41.98885 -87.93145 681 ft 6 kts 178°
2026-05-09 00:19 41.98840 -87.93117 681 ft 9 kts 123°
2026-05-09 00:19 41.98828 -87.92988 681 ft 21 kts 90°
2026-05-09 00:19 41.98828 -87.92473 681 ft 91 kts 90°
2026-05-09 00:19 41.98828 -87.91294 681 ft 158 kts 90°
2026-05-09 00:20 41.98820 -87.89591 900 ft 198 kts 91°
2026-05-09 00:20 41.98919 -87.87769 1785 ft 196 kts 81°
2026-05-09 00:20 41.99129 -87.85970 2458 ft 202 kts 85°
2026-05-09 00:20 41.99208 -87.84023 2912 ft 218 kts 89°
2026-05-09 00:21 41.99255 -87.81921 3392 ft 234 kts 89°
2026-05-09 00:21 41.99314 -87.79656 3987 ft 249 kts 84°
2026-05-09 00:21 41.99632 -87.77308 4606 ft 263 kts 78°
2026-05-09 00:21 42.00036 -87.74862 5412 ft 271 kts 78°
2026-05-09 00:22 42.00446 -87.72398 6214 ft 277 kts 78°
2026-05-09 00:22 42.00866 -87.69875 7004 ft 283 kts 78°
2026-05-09 00:22 42.01302 -87.67278 7749 ft 288 kts 78°
2026-05-09 00:22 42.01740 -87.64625 8464 ft 293 kts 77°
2026-05-09 00:23 42.02186 -87.61938 9164 ft 298 kts 77°
2026-05-09 00:23 42.02642 -87.59201 9822 ft 303 kts 77°
2026-05-09 00:23 42.03099 -87.56437 10406 ft 313 kts 77°
2026-05-09 00:23 42.03576 -87.53502 10808 ft 330 kts 77°
2026-05-09 00:24 42.04085 -87.50414 11239 ft 347 kts 76°
2026-05-09 00:24 42.04619 -87.47160 11693 ft 363 kts 76°
2026-05-09 00:24 42.05167 -87.43816 12168 ft 379 kts 76°
2026-05-09 00:24 42.05753 -87.40288 12657 ft 394 kts 75°
2026-05-09 00:25 42.06355 -87.36648 13281 ft 405 kts 75°
2026-05-09 00:25 42.06961 -87.32908 14091 ft 411 kts 75°
2026-05-09 00:25 42.07571 -87.29167 14874 ft 418 kts 75°
2026-05-09 00:25 42.08195 -87.25323 15635 ft 425 kts 75°
2026-05-09 00:26 42.08825 -87.21427 16403 ft 432 kts 75°
2026-05-09 00:26 42.09460 -87.17486 17152 ft 438 kts 76°
2026-05-09 00:26 42.10114 -87.13415 17902 ft 445 kts 76°
2026-05-09 00:26 42.10766 -87.09352 18625 ft 451 kts 76°
2026-05-09 00:27 42.11265 -87.05146 19328 ft 460 kts 83°
2026-05-09 00:27 42.11463 -87.00839 20026 ft 467 kts 85°
2026-05-09 00:27 42.11626 -86.96407 20719 ft 473 kts 86°
2026-05-09 00:27 42.11787 -86.91956 21395 ft 479 kts 86°
2026-05-09 00:28 42.11947 -86.87479 22048 ft 485 kts 86°
2026-05-09 00:28 42.12109 -86.82917 22690 ft 491 kts 86°
2026-05-09 00:28 42.12273 -86.78237 23323 ft 497 kts 86°
2026-05-09 00:28 42.12438 -86.73513 23927 ft 503 kts 86°
2026-05-09 00:29 42.12601 -86.68777 24512 ft 509 kts 86°
2026-05-09 00:29 42.12767 -86.63888 25101 ft 515 kts 86°
2026-05-09 00:29 42.12931 -86.59012 25667 ft 521 kts 86°
2026-05-09 00:29 42.13095 -86.54107 26208 ft 528 kts 86°
2026-05-09 00:30 42.13257 -86.49145 26750 ft 535 kts 86°
2026-05-09 00:30 42.13422 -86.44131 27298 ft 541 kts 86°
2026-05-09 00:30 42.13582 -86.39081 27833 ft 548 kts 86°
2026-05-09 00:30 42.13744 -86.33916 28365 ft 555 kts 88°
2026-05-09 00:31 42.13897 -86.28709 28844 ft 562 kts 88°
2026-05-09 00:31 42.14057 -86.23399 29383 ft 568 kts 88°
2026-05-09 00:31 42.14216 -86.18143 30093 ft 568 kts 88°
2026-05-09 00:31 42.14375 -86.12786 30868 ft 567 kts 88°
2026-05-09 00:32 42.14489 -86.07484 31560 ft 567 kts 90°
2026-05-09 00:32 42.14462 -86.02178 32173 ft 569 kts 91°
2026-05-09 00:32 42.14410 -85.96790 32815 ft 570 kts 91°
2026-05-09 00:32 42.14357 -85.91473 33522 ft 569 kts 91°
2026-05-09 00:33 42.14306 -85.86177 34248 ft 568 kts 91°
2026-05-09 00:33 42.14254 -85.80746 34863 ft 569 kts 91°
2026-05-09 00:33 42.14201 -85.75352 34939 ft 571 kts 91°
2026-05-09 00:34 42.14094 -85.64572 34949 ft 562 kts 91°
2026-05-09 00:34 42.13984 -85.54097 34852 ft 559 kts 91°
2026-05-09 00:35 42.13866 -85.43581 34837 ft 562 kts 91°
2026-05-09 00:35 42.13739 -85.33068 34826 ft 561 kts 92°
2026-05-09 00:36 42.13605 -85.22568 34815 ft 560 kts 92°
2026-05-09 00:36 42.13461 -85.12112 34827 ft 560 kts 92°
2026-05-09 00:37 42.13307 -85.01585 34830 ft 559 kts 92°
2026-05-09 00:37 42.13123 -84.91093 34833 ft 559 kts 92°
2026-05-09 00:38 42.12928 -84.80620 34834 ft 559 kts 92°
2026-05-09 00:38 42.12725 -84.70153 34837 ft 559 kts 92°
2026-05-09 00:39 42.12512 -84.59685 34841 ft 559 kts 91°
2026-05-09 00:39 42.12322 -84.49269 34840 ft 559 kts 88°
2026-05-09 00:40 42.13179 -84.38876 34849 ft 559 kts 79°
2026-05-09 00:40 42.14359 -84.28473 34832 ft 560 kts 79°
2026-05-09 00:41 42.16091 -84.12999 34832 ft 561 kts 79°
2026-05-09 00:41 42.17247 -84.02522 34832 ft 562 kts 79°
2026-05-09 00:42 42.18383 -83.92128 34837 ft 562 kts 79°
2026-05-09 00:42 42.19511 -83.81697 34838 ft 562 kts 79°
2026-05-09 00:43 42.20634 -83.71226 34836 ft 562 kts 79°
2026-05-09 00:43 42.21741 -83.60810 34832 ft 562 kts 79°
2026-05-09 00:44 42.22812 -83.50380 34826 ft 562 kts 83°
2026-05-09 00:44 42.23063 -83.39823 34831 ft 562 kts 88°
2026-05-09 00:45 42.23150 -83.29256 34814 ft 561 kts 89°
2026-05-09 00:45 42.23226 -83.18753 34814 ft 560 kts 89°
2026-05-09 00:46 42.23294 -83.08214 34817 ft 559 kts 89°
2026-05-09 00:46 42.23353 -82.97786 34822 ft 559 kts 89°
2026-05-09 00:47 42.23395 -82.88778 34824 ft 553 kts 89°
2026-05-09 00:47 42.23435 -82.78409 34830 ft 559 kts 89°
2026-05-09 00:48 42.23466 -82.67954 34829 ft 559 kts 89°
2026-05-09 00:48 42.23487 -82.57523 34836 ft 559 kts 89°
2026-05-09 00:49 42.23499 -82.47018 34842 ft 559 kts 89°
2026-05-09 00:49 42.23502 -82.36517 34852 ft 560 kts 89°
2026-05-09 00:50 42.23495 -82.26012 34839 ft 561 kts 90°
2026-05-09 00:50 42.23478 -82.15546 34844 ft 562 kts 90°
2026-05-09 00:51 42.23452 -82.04961 34849 ft 562 kts 90°
2026-05-09 00:51 42.23416 -81.94422 34853 ft 563 kts 90°
2026-05-09 00:52 42.23370 -81.83962 34858 ft 563 kts 90°
2026-05-09 00:52 42.23315 -81.73380 34857 ft 563 kts 90°
2026-05-09 00:53 42.23250 -81.62845 34861 ft 563 kts 90°
2026-05-09 00:53 42.23175 -81.52298 34865 ft 562 kts 90°
2026-05-09 00:54 42.23091 -81.41732 34873 ft 562 kts 90°
2026-05-09 00:54 42.22998 -81.31273 34861 ft 560 kts 91°
2026-05-09 00:55 42.22896 -81.20824 34864 ft 559 kts 91°
2026-05-09 00:55 42.22783 -81.10307 34867 ft 558 kts 90°
2026-05-09 00:56 42.22662 -80.99886 34872 ft 557 kts 90°
2026-05-09 00:56 42.22531 -80.89488 34875 ft 556 kts 90°
2026-05-09 00:57 42.22392 -80.79114 34881 ft 555 kts 90°
2026-05-09 00:57 42.22244 -80.68808 34886 ft 554 kts 90°
2026-05-09 00:58 42.22086 -80.58433 34889 ft 554 kts 90°
2026-05-09 00:58 42.21920 -80.48107 34896 ft 554 kts 90°
2026-05-09 00:59 42.21743 -80.37717 34901 ft 554 kts 90°
2026-05-09 00:59 42.21557 -80.27387 34891 ft 554 kts 91°
2026-05-09 01:00 42.21361 -80.16983 34894 ft 554 kts 91°
2026-05-09 01:00 42.21157 -80.06632 34901 ft 555 kts 91°
2026-05-09 01:01 42.20943 -79.96252 34905 ft 556 kts 91°
2026-05-09 01:01 42.20719 -79.85872 34910 ft 556 kts 91°
2026-05-09 01:02 42.20486 -79.75506 34913 ft 556 kts 91°
2026-05-09 01:02 42.20244 -79.65108 34918 ft 555 kts 91°
2026-05-09 01:03 42.19993 -79.54767 34923 ft 555 kts 91°
2026-05-09 01:03 42.19732 -79.44401 34927 ft 554 kts 91°
2026-05-09 01:04 42.19463 -79.34078 34926 ft 554 kts 92°
2026-05-09 01:04 42.19185 -79.23740 34913 ft 553 kts 92°
2026-05-09 01:05 42.18611 -79.13448 34915 ft 552 kts 102°
2026-05-09 01:06 42.15380 -78.98642 34920 ft 549 kts 110°
2026-05-09 01:06 42.12998 -78.88912 34923 ft 549 kts 110°
2026-05-09 01:07 42.10581 -78.79174 34927 ft 548 kts 111°
2026-05-09 01:07 42.08157 -78.69498 34931 ft 548 kts 111°
2026-05-09 01:08 42.05699 -78.59759 34931 ft 549 kts 111°
2026-05-09 01:08 42.03239 -78.50071 34930 ft 549 kts 111°
2026-05-09 01:09 42.00778 -78.40423 34931 ft 549 kts 111°
2026-05-09 01:09 41.98300 -78.30751 34913 ft 549 kts 112°
2026-05-09 01:10 41.95804 -78.21056 34910 ft 551 kts 112°
2026-05-09 01:10 41.93291 -78.11330 34914 ft 551 kts 112°
2026-05-09 01:11 41.90780 -78.01653 34918 ft 550 kts 112°
2026-05-09 01:11 41.88266 -77.92007 34920 ft 549 kts 112°
2026-05-09 01:12 41.85750 -77.82391 34922 ft 550 kts 112°
2026-05-09 01:12 41.83212 -77.72734 34922 ft 550 kts 112°
2026-05-09 01:13 41.80657 -77.63053 34920 ft 550 kts 112°
2026-05-09 01:13 41.78111 -77.53441 34917 ft 551 kts 112°
2026-05-09 01:14 41.75541 -77.43777 34920 ft 551 kts 112°
2026-05-09 01:14 41.72966 -77.34128 34921 ft 552 kts 113°
2026-05-09 01:15 41.70393 -77.24528 34905 ft 553 kts 113°
2026-05-09 01:15 41.67780 -77.14812 34908 ft 554 kts 113°
2026-05-09 01:16 41.65182 -77.05197 34916 ft 554 kts 113°
2026-05-09 01:16 41.62553 -76.95508 34924 ft 555 kts 113°
2026-05-09 01:17 41.58595 -76.80982 34931 ft 555 kts 113°
2026-05-09 01:17 41.55947 -76.71315 34924 ft 555 kts 113°
2026-05-09 01:18 41.53299 -76.61684 34899 ft 554 kts 113°
2026-05-09 01:18 41.50636 -76.52032 34877 ft 554 kts 113°
2026-05-09 01:19 41.47987 -76.42462 34858 ft 553 kts 113°
2026-05-09 01:19 41.45320 -76.32863 34847 ft 553 kts 114°
2026-05-09 01:20 41.42648 -76.23280 34332 ft 549 kts 114°
2026-05-09 01:20 41.41317 -76.18529 33552 ft 555 kts 114°
2026-05-09 01:20 41.39962 -76.13696 32816 ft 559 kts 114°
2026-05-09 01:21 41.38596 -76.08833 32047 ft 564 kts 114°
2026-05-09 01:21 41.37225 -76.03964 31229 ft 569 kts 114°
2026-05-09 01:21 41.35830 -75.99018 30435 ft 569 kts 113°
2026-05-09 01:21 41.34446 -75.94114 29934 ft 562 kts 113°
2026-05-09 01:22 41.33083 -75.89292 29449 ft 556 kts 113°
2026-05-09 01:22 41.31734 -75.84529 28948 ft 549 kts 112°
2026-05-09 01:22 41.30399 -75.79829 28431 ft 544 kts 112°
2026-05-09 01:22 41.29078 -75.75185 27924 ft 538 kts 112°
2026-05-09 01:23 41.27763 -75.70571 27416 ft 532 kts 112°
2026-05-09 01:23 41.26428 -75.66041 26916 ft 525 kts 115°
2026-05-09 01:23 41.24964 -75.61655 26434 ft 519 kts 116°
2026-05-09 01:23 41.23495 -75.57329 25928 ft 514 kts 116°
2026-05-09 01:24 41.22020 -75.52977 25405 ft 510 kts 116°
2026-05-09 01:24 41.20575 -75.48712 24880 ft 506 kts 116°
2026-05-09 01:24 41.19149 -75.44498 24356 ft 502 kts 116°
2026-05-09 01:24 41.17738 -75.40324 23837 ft 498 kts 115°
2026-05-09 01:25 41.16329 -75.36159 23311 ft 494 kts 115°
2026-05-09 01:25 41.14930 -75.32024 22947 ft 485 kts 116°
2026-05-09 01:25 41.13556 -75.27965 22905 ft 488 kts 116°
2026-05-09 01:25 41.12157 -75.23833 22897 ft 490 kts 116°
2026-05-09 01:26 41.10762 -75.19717 22895 ft 490 kts 116°
2026-05-09 01:26 41.09378 -75.15635 22907 ft 490 kts 116°
2026-05-09 01:26 41.07984 -75.11530 22956 ft 491 kts 116°
2026-05-09 01:26 41.06583 -75.07409 22599 ft 497 kts 116°
2026-05-09 01:27 41.05175 -75.03275 22110 ft 492 kts 116°
2026-05-09 01:27 41.03773 -74.99159 21838 ft 480 kts 116°
2026-05-09 01:27 41.02423 -74.95204 21631 ft 478 kts 116°
2026-05-09 01:27 41.01046 -74.91177 21483 ft 480 kts 116°
2026-05-09 01:28 40.99836 -74.87048 21324 ft 479 kts 107°
2026-05-09 01:28 40.99115 -74.82783 21187 ft 477 kts 98°
2026-05-09 01:28 40.98596 -74.78460 21075 ft 476 kts 97°
2026-05-09 01:28 40.98094 -74.74146 20947 ft 475 kts 97°
2026-05-09 01:29 40.97591 -74.69831 20808 ft 474 kts 97°
2026-05-09 01:29 40.97088 -74.65535 20672 ft 473 kts 97°
2026-05-09 01:29 40.96592 -74.61314 20546 ft 471 kts 97°
2026-05-09 01:29 40.96084 -74.57014 20413 ft 470 kts 97°
2026-05-09 01:30 40.95578 -74.52743 20279 ft 469 kts 97°
2026-05-09 01:30 40.95073 -74.48496 20145 ft 467 kts 97°
2026-05-09 01:30 40.94569 -74.44270 20010 ft 466 kts 97°
2026-05-09 01:30 40.94065 -74.40062 19876 ft 465 kts 97°
2026-05-09 01:31 40.93557 -74.35830 19723 ft 465 kts 97°
2026-05-09 01:31 40.93054 -74.31660 19593 ft 453 kts 98°
2026-05-09 01:31 40.92569 -74.27653 19520 ft 438 kts 98°
2026-05-09 01:31 40.92094 -74.23742 19402 ft 425 kts 98°
2026-05-09 01:32 40.91633 -74.19954 19264 ft 414 kts 98°
2026-05-09 01:32 40.91177 -74.16236 19003 ft 407 kts 99°
2026-05-09 01:32 40.90360 -74.12708 18742 ft 398 kts 118°
2026-05-09 01:32 40.88865 -74.09736 18450 ft 387 kts 139°
2026-05-09 01:33 40.86773 -74.07587 18079 ft 368 kts 161°
2026-05-09 01:33 40.84412 -74.06511 17719 ft 351 kts 176°
2026-05-09 01:33 40.82059 -74.05830 17335 ft 347 kts 177°
2026-05-09 01:33 40.79718 -74.05196 16949 ft 344 kts 177°
2026-05-09 01:34 40.77361 -74.04569 16557 ft 342 kts 177°
2026-05-09 01:34 40.75034 -74.03956 16172 ft 340 kts 177°
2026-05-09 01:34 40.72719 -74.03352 15806 ft 337 kts 177°
2026-05-09 01:34 40.70422 -74.02761 15441 ft 335 kts 177°
2026-05-09 01:35 40.68132 -74.02177 15074 ft 333 kts 178°
2026-05-09 01:35 40.65870 -74.01611 14705 ft 331 kts 178°
2026-05-09 01:35 40.63621 -74.01052 14313 ft 329 kts 177°
2026-05-09 01:35 40.61353 -74.00495 13915 ft 327 kts 177°
2026-05-09 01:36 40.59112 -73.99955 13519 ft 326 kts 178°
2026-05-09 01:36 40.56904 -73.99431 13134 ft 324 kts 177°
2026-05-09 01:36 40.54723 -73.98915 12997 ft 314 kts 177°
2026-05-09 01:36 40.52551 -73.98408 12743 ft 315 kts 177°
2026-05-09 01:37 40.50421 -73.97923 12380 ft 314 kts 177°
2026-05-09 01:37 40.48273 -73.97445 12009 ft 312 kts 177°
2026-05-09 01:37 40.46124 -73.96978 11637 ft 311 kts 177°
2026-05-09 01:37 40.44034 -73.96264 11249 ft 318 kts 160°
2026-05-09 01:38 40.42244 -73.94532 10861 ft 327 kts 134°
2026-05-09 01:38 40.41025 -73.92016 10487 ft 329 kts 119°
2026-05-09 01:38 40.40020 -73.89309 10096 ft 329 kts 117°
2026-05-09 01:38 40.39037 -73.86610 9710 ft 328 kts 117°
2026-05-09 01:39 40.38054 -73.83910 9324 ft 327 kts 117°
2026-05-09 01:39 40.37085 -73.81258 8945 ft 326 kts 117°
2026-05-09 01:39 40.36098 -73.78567 8544 ft 325 kts 117°
2026-05-09 01:39 40.35129 -73.75933 8161 ft 320 kts 117°
2026-05-09 01:40 40.34163 -73.73326 7680 ft 319 kts 117°
2026-05-09 01:40 40.33425 -73.70607 7161 ft 320 kts 97°
2026-05-09 01:40 40.33535 -73.67728 6658 ft 315 kts 71°
2026-05-09 01:40 40.34499 -73.65235 6188 ft 304 kts 45°
2026-05-09 01:41 40.36076 -73.63477 5742 ft 291 kts 29°
2026-05-09 01:41 40.37769 -73.62057 5288 ft 287 kts 27°
2026-05-09 01:41 40.39424 -73.60709 4849 ft 281 kts 27°
2026-05-09 01:41 40.41068 -73.59380 4406 ft 275 kts 27°
2026-05-09 01:42 40.42683 -73.58093 3962 ft 269 kts 27°
2026-05-09 01:42 40.44281 -73.56829 3517 ft 264 kts 27°
2026-05-09 01:42 40.45831 -73.55614 3176 ft 262 kts 27°
2026-05-09 01:42 40.47426 -73.54391 2804 ft 262 kts 27°
2026-05-09 01:43 40.48992 -73.53230 2382 ft 254 kts 27°
2026-05-09 01:43 40.50616 -73.52576 2061 ft 240 kts 359°
2026-05-09 01:43 40.52180 -73.53093 1995 ft 230 kts 330°
2026-05-09 01:43 40.53565 -73.54148 2002 ft 227 kts 325°
2026-05-09 01:44 40.54755 -73.55429 2002 ft 222 kts 310°
2026-05-09 01:44 40.55701 -73.57010 2003 ft 218 kts 301°
2026-05-09 01:44 40.56517 -73.58693 2003 ft 218 kts 298°
2026-05-09 01:44 40.57303 -73.60423 2004 ft 219 kts 298°
2026-05-09 01:45 40.58080 -73.62143 2005 ft 219 kts 298°
2026-05-09 01:45 40.58856 -73.63856 1998 ft 211 kts 298°
2026-05-09 01:45 40.59574 -73.65426 1942 ft 193 kts 298°
2026-05-09 01:45 40.60242 -73.66895 1678 ft 182 kts 298°
2026-05-09 01:46 40.60876 -73.68282 1445 ft 170 kts 298°
2026-05-09 01:46 40.61458 -73.69553 1219 ft 154 kts 298°
2026-05-09 01:46 40.62002 -73.70749 1019 ft 150 kts 298°
2026-05-09 01:46 40.62530 -73.71905 821 ft 148 kts 298°
2026-05-09 01:47 40.63069 -73.73083 614 ft 148 kts 298°
2026-05-09 01:47 40.63602 -73.74252 407 ft 149 kts 298°
2026-05-09 01:47 40.64064 -73.75266 228 ft 149 kts 299°
2026-05-09 01:47 40.64601 -73.76444 31 ft 149 kts 299°
2026-05-09 01:48 40.65015 -73.77342 28 ft 67 kts 300°
2026-05-09 01:48 40.65067 -73.77460 28 ft 11 kts 301°
2026-05-09 01:48 40.65138 -73.77616 28 ft 20 kts 301°
2026-05-09 01:48 40.65215 -73.77786 28 ft 23 kts 298°
2026-05-09 01:49 40.65204 -73.77924 28 ft 0 kts 233°
2026-05-09 01:49 40.65201 -73.77930 28 ft 6 kts 239°